Location: Unspecified
(0.0000°N, 0.0000°E)
Time: 12:29:07
(UTC+00:00)

Vanguard 2 - Pass Details

Date: 19 December 2018
Orbit: 553 x 2938 km, 32.9° (Epoch: 15 July)

Event Time Altitude Azimuth Distance (km) Brightness Sun altitude
Rises 02:55:46 0° 299° (WNW) 5,046 - -40.7°
Reaches altitude 10° 02:58:37 10° 297° (WNW) 4,324 - -40.1°
Exits shadow 03:08:52 64° 265° (W) 2,665 9.8 -37.9°
Maximum altitude 03:11:27 73° 215° (SW) 2,667 10.0 -37.3°
Drops below altitude 10° 03:29:22 10° 132° (SE) 5,770 12.8 -33.4°
Sets 03:33:53 0° 130° (SE) 6,750 13.4 -32.4°
